Location: Palomar Mountain Lodge
(33.3110°N, 116.8495°W)
Time: 18:38:57
(UTC-07:00)

IGS 5A - Pass Details

Date: 14 June 2018
Orbit: 584 x 589 km, 97.7° (Epoch: 11 August)

Event Time Altitude Azimuth Distance (km) Brightness Sun altitude
Exits shadow 22:43:04 56° 8° (N) 704 4.0 -26.1°
Drops below altitude 10° 22:46:24 10° 352° (N) 1,914 6.9 -26.4°
Sets 22:48:34 0° 351° (N) 2,817 8.0 -26.7°
